Location: *
(48.8780°N, 19.2358°E)
Time: 11:55:31
(UTC+00:00)

STARLINK-29 - Pass Details

Date: 18 October 2019
Orbit: 437 x 449 km, 53.0° (Epoch: 12 November)

Event Time Altitude Azimuth Distance (km) Brightness Sun altitude
Rises 17:45:05 0° 294° (WNW) 2,435 8.3 -19.9°
Reaches altitude 10° 17:47:12 10° 295° (WNW) 1,565 7.0 -20.2°
Enters shadow 17:50:38 80° 352° (N) 456 3.1 -20.8°
